Station 46082 (LLNR 1097) - Cape Suckling - 35 NM SE of Kayak Is, AK Image indicating link to RSS feed of recent meteorological observations for station 46082


Conditions at 46082 as of
(10:00 am AKDT)
1800 GMT on 06/16/2024:
     

Click on the graph icon in the table below to see a time series plot of the last five days of that observation.

5-day plot - Wind Direction Wind Direction (WDIR):WSW ( 250 deg true )
5-day plot - Wind Speed Wind Speed (WSPD): 7.8 kts
5-day plot - Wind Gust Wind Gust (GST): 11.7 kts
5-day plot - Atmospheric Pressure Atmospheric Pressure (PRES):30.14 in
5-day plot - Pressure Tendency Pressure Tendency (PTDY):+0.00 in ( Steady )
5-day plot - Air Temperature Air Temperature (ATMP): 48.0 °F
5-day plot - Water Temperature Water Temperature (WTMP): 50.9 °F
5-day plot - Wind Chill Wind Chill (CHILL): 44.1 °F
5-day plot - Wind Speed at 10 Meters Wind Speed at 10 meters (WSPD10M): 9.7 kts
5-day plot - Wind Speed at 20 Meters Wind Speed at 20 meters (WSPD20M): 9.7 kts
5-day plot -  Wind Speed, Wind Gust and Atmospheric Pressure Combined plot of Wind Speed, Gust, and Air Pressure
Supplemental Measurements
Highest 1-minute Wind Speed
Time (AKDT)5-day plot - 1-Minute Wind Speed WSPD 5-day plot - 1-Minute Wind Direction WDIR
9:58 am 9.7 kts-
Previous observations
TIME
(AKDT)
5-day plot - Wind Direction
WDIR
 
5-day plot - Wind Speed
WSPD
kts
5-day plot - Wind Gust
GST
kts
5-day plot - Wave Height
WVHT
ft
5-day plot - Dominant Wave Period
DPD
sec
5-day plot - Average Wave Period
APD
sec
5-day plot - Mean Wave Direction
MWD
 
5-day plot - Atmospheric Pressure
PRES
in
5-day plot - Pressure Tendency
PTDY
in
5-day plot - Air Temperature
ATMP
°F
5-day plot - Water Temperature
WTMP
°F
5-day plot - Dew Point
DEWP
°F
5-day plot - Salinity
SAL
psu
5-day plot - Visibility
VIS
nmi
5-day plot - Tide (above MLLW)
TIDE
ft
2024-06-16 09:50 am W 7.8 9.7 2.6 146.5SSE30.14- 47.8 50.9----
2024-06-16 09:40 am W 7.8 9.7 2.6-6.5SSE30.14- 47.7 50.9----
2024-06-16 09:30 amWSW 7.8 9.7----30.14- 47.7 50.9----
2024-06-16 09:20 amWSW 9.7 11.7 2.6 146.6 S30.14- 47.3 50.7----
2024-06-16 09:10 amWSW 9.7 11.7 2.6-6.6 S30.14- 47.3 50.7----
2024-06-16 09:00 amWSW 9.7 11.7----30.14+0.00 47.3 50.7----
2024-06-16 08:50 am W 7.8 11.7 2.3 156.5 S30.14- 47.3 50.7----
2024-06-16 08:40 am W 7.8 11.7 2.3-6.5 S30.14- 47.1 50.7----
2024-06-16 08:30 am W 7.8 9.7----30.14- 46.9 50.9----
2024-06-16 08:20 am W 7.8 9.7 2.3 156.3SSE30.14- 46.9 50.9----
2024-06-16 08:10 am W 5.8 9.7 2.3-6.3SSE30.14- 47.1 50.9----
2024-06-16 08:00 am W 5.8 9.7----30.14+0.00 46.9 50.9----
2024-06-16 07:50 am W 7.8 9.7 2.6 146.6 S30.14- 46.8 50.9----
2024-06-16 07:40 amWSW 7.8 11.7 2.6-6.6 S30.14- 46.9 50.9----
2024-06-16 07:30 amWSW 7.8 9.7----30.13- 46.9 50.9----
2024-06-16 07:20 am W 7.8 9.7 2.6 146.8 S30.13- 46.8 50.9----
2024-06-16 07:10 amWSW 7.8 11.7 2.6-6.8 S30.13- 46.9 50.9----
2024-06-16 07:00 amWSW 7.8 11.7----30.13+0.00 47.1 50.9----
2024-06-16 06:50 amWSW 7.8 9.7 2.6 156.7SSE30.13- 46.9 50.9----
2024-06-16 06:40 amWSW 7.8 9.7----30.13- 46.9 50.9----
2024-06-16 06:30 amWSW 7.8 9.7----30.14- 46.9 50.9----
2024-06-16 06:20 am W 7.8 9.7 2.3 156.2 S30.13- 46.8 50.9----
2024-06-16 06:10 amWSW 7.8 9.7 2.3-6.2 S30.13- 46.9 50.9----
2024-06-16 06:00 am W 7.8 9.7----30.13+0.00 46.9 50.9----
2024-06-16 05:50 amWSW 7.8 9.7 2.3 146.4 SW30.13- 47.1 50.9----
2024-06-16 05:40 amWSW 5.8 7.8 2.3-6.4 SW30.13- 46.9 50.9----
2024-06-16 05:30 am W 5.8 7.8----30.13- 46.9 50.9----
2024-06-16 05:20 amWSW 7.8 9.7 2.6 146.5 S30.13- 47.1 50.9----
2024-06-16 05:10 amWSW 7.8 9.7 2.6-6.5 S30.13- 47.1 50.9----
2024-06-16 05:00 amWSW 7.8 9.7----30.13+0.00 47.3 50.9 47.3---
2024-06-16 04:50 amWSW 7.8 9.7 2.6 146.5SSE30.14- 47.3 50.7 47.3---
2024-06-16 04:40 amWSW 7.8 11.7 2.6-6.5SSE30.14- 47.5 50.9 47.5---
2024-06-16 04:30 am W 7.8 9.7----30.13- 47.5 50.7 47.5---
2024-06-16 04:20 amWSW 7.8 9.7 2.6 156.8SSE30.14- 47.3 50.7 47.3---
2024-06-16 04:10 amWSW 7.8 9.7 2.6-6.8SSE30.14- 47.5 50.7 47.3---
2024-06-16 04:00 amWSW 7.8 11.7----30.14+0.00 47.7 50.9 47.5---
2024-06-16 03:50 amWSW 7.8 11.7 2.3 146.6SSW30.14- 47.7 50.9 47.5---
2024-06-16 03:40 amWSW 7.8 9.7 2.3-6.6SSW30.14- 47.8 51.1 47.7---
2024-06-16 03:30 amWSW 7.8 11.7----30.13- 47.8 51.1 47.5---
2024-06-16 03:20 amWSW 7.8 9.7 2.3 146.2 S30.13- 48.0 51.1 47.5---
2024-06-16 03:10 amWSW 7.8 11.7 2.3-6.2 S30.13- 48.2 51.1 47.7---
2024-06-16 03:00 am W 7.8 7.8----30.13+0.01 48.2 51.1 47.5---
2024-06-16 02:50 am W 7.8 9.7 2.3 156.2 SE30.14- 48.4 51.1 47.7---
2024-06-16 02:40 am W 7.8 9.7 2.3-6.2 SE30.13- 48.6 51.3 47.8---
2024-06-16 02:30 am W 7.8 9.7----30.14- 48.6 51.3 47.8---
2024-06-16 02:20 amWSW 7.8 9.7 2.6 156.6SSW30.13- 48.6 51.3 48.0---
2024-06-16 02:10 amWSW 7.8 11.7 2.6-6.6SSW30.13- 48.4 51.3 47.8---
2024-06-16 02:00 amWSW 7.8 9.7----30.14+0.01 48.4 51.3 47.8---
2024-06-16 01:50 amWSW 7.8 9.7 2.3 146.6SSW30.13- 48.4 51.4 47.7---
2024-06-16 01:40 amWSW 7.8 9.7 2.3-6.6SSW30.13- 48.4 51.4 47.7---
2024-06-16 01:30 amWSW 5.8 7.8----30.13- 48.2 51.4 47.5---
2024-06-16 01:20 amWSW 5.8 9.7 2.3 146.5SSW30.13- 48.2 51.4 47.5---
2024-06-16 01:10 amWSW 7.8 9.7 2.3-6.5SSW30.13- 48.2 51.3 47.5---
2024-06-16 01:00 amWSW 7.8 9.7----30.13+0.02 48.2 51.3 47.5---
2024-06-16 12:50 amWSW 7.8 9.7 2.3 146.5 S30.13- 48.0 51.3 47.3---
2024-06-16 12:40 amWSW 7.8 11.7----30.13- 48.0 51.3 47.3---
2024-06-16 12:30 amWSW 7.8 9.7----30.13- 47.8 51.3 47.1---
2024-06-16 12:20 amWSW 7.8 9.7 2.6 157.3SSW30.13- 47.7 51.3 46.9---
2024-06-16 12:10 amWSW 7.8 9.7 2.6-7.3SSW30.12- 47.7 51.3 46.9---
2024-06-16 12:00 amWSW 7.8 9.7----30.12+0.02 47.7 51.3 46.9---
2024-06-15 11:50 pmWSW 7.8 9.7 2.6 156.8 S30.12- 47.7 51.3 46.9---
2024-06-15 11:40 pmWSW 7.8 9.7 2.6-6.8 S30.12- 47.5 51.3 46.8---
2024-06-15 11:30 pmWSW 7.8 9.7----30.12- 47.5 51.3 46.8---
2024-06-15 11:20 pmWSW 7.8 9.7 2.3 146.6SSW30.12- 47.5 51.4 46.8---
2024-06-15 11:10 pmWSW 7.8 7.8 2.3-6.6SSW30.11- 47.5 51.4 46.8---
2024-06-15 11:00 pmWSW 5.8 7.8----30.11+0.01 47.5 51.6 46.8---
2024-06-15 10:50 pmWSW 5.8 7.8 2.3 147.2SSW30.11- 47.5 51.6 46.6---
2024-06-15 10:40 pm W 5.8 9.7----30.11- 47.5 51.8 46.4---
2024-06-15 10:30 pm W 7.8 7.8----30.11- 47.7 51.8 46.6---
2024-06-15 10:20 pmWSW 7.8 7.8 2.6 147.6SSW30.11- 47.5 51.6 46.4---
2024-06-15 10:10 pmWSW 7.8 9.7 2.6-7.6SSW30.11- 47.5 52.0 46.4---
2024-06-15 10:00 pmWSW 7.8 9.7----30.11+0.00 47.5 52.0 46.4---
2024-06-15 09:50 pmWSW 7.8 7.8 2.6 147.7SSW30.11- 47.3 52.0 46.0---
2024-06-15 09:40 pmWSW 5.8 7.8----30.11- 47.5 52.0 46.2---
2024-06-15 09:30 pm W 5.8 7.8----30.10- 47.5 52.0 46.2---
2024-06-15 09:20 pmWSW 5.8 7.8 2.6 147.6SSW30.10- 47.5 52.0 46.2---
2024-06-15 09:10 pmWSW 5.8 7.8 2.6-7.6SSW30.10- 47.7 52.0 46.4---
2024-06-15 09:00 pm SW 5.8 7.8----30.10-0.01 47.8 52.0 46.4---
2024-06-15 08:50 pm SW 5.8 7.8 2.3 147.4SSW30.10- 47.8 52.0 46.2---
2024-06-15 08:40 pm SW 5.8 7.8 2.3-7.4SSW30.10- 48.0 52.0 46.4---
2024-06-15 08:30 pm SW 5.8 7.8----30.10- 48.0 52.0 46.4---
2024-06-15 08:20 pm SW 5.8 7.8 3.0 148.1SSW30.11- 48.2 52.0 46.6---
2024-06-15 08:10 pm SW 7.8 9.7 3.0-8.1SSW30.11- 48.4 52.0 46.6---
2024-06-15 08:00 pm SW 7.8 9.7----30.11-0.01 48.6 52.0 46.8---
2024-06-15 07:50 pm SW 5.8 7.8 2.3 147.1 S30.10- 48.6 52.0 46.6---
2024-06-15 07:40 pm SW 5.8 7.8 2.3-7.1 S30.11- 48.6 52.0 46.6---
2024-06-15 07:30 pm SW 5.8 7.8----30.11- 48.7 52.0 46.8---
2024-06-15 07:20 pm SW 5.8 7.8 2.6 157.0SSW30.11- 48.7 51.8 46.8---
2024-06-15 07:10 pm SW 5.8 7.8 2.6-7.0SSW30.11- 48.7 51.4 46.8---
2024-06-15 07:00 pmSSW 5.8 7.8----30.11-0.01 48.9 51.1 46.8---
2024-06-15 06:50 pm SW 3.9 7.8 2.3 147.0SSW30.11- 49.3 51.1 46.9---
2024-06-15 06:40 pm SW 3.9 5.8----30.11- 49.5 51.1 46.9---
2024-06-15 06:30 pm SW 3.9 3.9----30.11- 49.5 51.1 46.9---
2024-06-15 06:20 pm SW 3.9 5.8 2.6 157.4 S30.11- 49.5 51.1 46.9---
2024-06-15 06:10 pm SW 3.9 5.8 2.6-7.4 S30.11- 49.3 51.3 46.8---
2024-06-15 06:00 pm SW 3.9 5.8----30.11+0.00 49.3 51.4 46.9---
2024-06-15 05:50 pmSSW 3.9 5.8 2.6 157.4 S30.11- 49.3 51.1 46.9---
2024-06-15 05:40 pm SW 5.8 5.8 2.6-7.4 S30.11- 49.5 50.9 46.9---
2024-06-15 05:30 pm SW 3.9 5.8----30.11- 49.5 51.1 47.1---
2024-06-15 05:20 pmSSW 3.9 5.8 2.6 147.1 S30.11- 49.6 51.3 47.1---
2024-06-15 05:10 pm SW 3.9 7.8 2.6-7.1 S30.11- 49.6 51.4 47.5---
2024-06-15 05:00 pmWSW 3.9 5.8----30.12+0.01 49.6 51.8 47.5---
2024-06-15 04:50 pm SW 3.9 5.8 2.6 156.8 SW30.12- 49.5 52.0 47.3---
2024-06-15 04:40 pm SW 3.9 5.8 2.6-6.8 SW30.12- 49.3 51.8 47.3---
2024-06-15 04:30 pmWSW 3.9 5.8----30.12- 49.3 51.8 47.3---
2024-06-15 04:20 pm SW 5.8 5.8 2.6 156.9SSE30.12- 49.3 52.0 47.3---
2024-06-15 04:10 pm SW 5.8 5.8 2.6-6.9SSE30.12- 49.3 51.6 47.3---
2024-06-15 04:00 pm SW 5.8 7.8----30.12+0.02 49.3 51.4 47.3---
2024-06-15 03:50 pm SW 3.9 5.8 2.3 146.5SSW30.12- 49.5 50.9 47.5---
2024-06-15 03:40 pm SW 3.9 5.8 2.3-6.5SSW30.12- 49.3 50.9 47.3---
2024-06-15 03:30 pm SW 3.9 5.8----30.12- 49.5 51.1 47.5---
2024-06-15 03:20 pm SW 3.9 5.8 3.0 156.8SSW30.12- 49.5 50.9 47.5---
2024-06-15 03:10 pm SW 3.9 5.8 3.0-6.8SSW30.12- 49.3 50.7 47.3---
2024-06-15 03:00 pm SW 3.9 5.8----30.12+0.02 49.5 50.9 47.5---
2024-06-15 02:50 pm SW 3.9 5.8 2.6 156.6 S30.11- 49.6 50.7 47.5---
2024-06-15 02:40 pm SW 3.9 5.8----30.12- 49.8 50.7 47.7---
2024-06-15 02:30 pm SW 1.9 5.8----30.11- 50.0 50.7 47.7---
2024-06-15 02:20 pm SW 3.9 3.9 3.0 156.6 S30.11- 49.8 50.7 47.7---
2024-06-15 02:10 pmSSW 1.9 3.9 3.0-6.6 S30.11- 49.8 50.7 47.7---
2024-06-15 02:00 pmSSW 1.9 3.9----30.11+0.01 49.8 50.7 47.7---
2024-06-15 01:50 pmSSW 1.9 3.9 2.6 156.4 S30.11- 49.8 50.5 47.7---
2024-06-15 01:40 pm SW 3.9 3.9 2.6-6.4 S30.11- 49.5 50.5 47.5---
2024-06-15 01:30 pm SW 3.9 5.8----30.11- 49.6 50.5 47.7---
2024-06-15 01:20 pmSSW 1.9 3.9 2.6 146.1SSE30.10- 49.6 50.5 47.5---
2024-06-15 01:10 pm SW 1.9 3.9 2.6-6.1SSE30.10- 49.8 50.5 47.8---
2024-06-15 01:00 pm S 1.9 3.9----30.10+0.02 49.5 50.5 47.5---
2024-06-15 12:50 pmSSW 1.9 3.9 2.6 145.8 S30.10- 49.5 50.5 47.8---
2024-06-15 12:40 pm S 1.9 3.9 2.6-5.8 S30.10- 49.6 50.5 47.7---
2024-06-15 12:30 pm S 1.9 1.9----30.10- 49.5 50.7 47.8---
2024-06-15 12:20 pm SW 1.9 3.9 3.0 145.9SSW30.10- 49.3 50.5 47.7---
2024-06-15 12:10 pmSSW 1.9 3.9 3.0-5.9SSW30.10- 49.1 50.5 47.5---
2024-06-15 12:00 pm SW 1.9 3.9----30.10+0.02 49.1 50.5 47.7---
2024-06-15 11:50 amWSW 1.9 3.9 2.6 165.4SSW30.10- 48.9 50.5 47.7---
2024-06-15 11:40 am SW 3.9 3.9 2.6-5.4SSW30.10- 48.7 50.5 47.7---
2024-06-15 11:30 amSSW 3.9 5.8----30.09- 48.6 50.5 47.5---
2024-06-15 11:20 amSSW 3.9 5.8 3.0 156.1SSW30.09- 48.6 50.5 47.5---
2024-06-15 11:10 amSSW 3.9 5.8 3.0-6.1SSW30.09- 48.7 50.5 47.7---
2024-06-15 11:00 amSSW 3.9 7.8----30.09+0.01 48.7 50.5 47.7---
2024-06-15 10:50 amSSW 5.8 7.8 2.6 155.5 S30.09- 48.9 50.5 47.7---
2024-06-15 10:40 am S 5.8 7.8 2.6-5.5 S30.09- 49.3 50.5 47.7---
2024-06-15 10:30 am SE 3.9 7.8----30.09- 49.5 50.5 47.5---
2024-06-15 10:20 am SE 5.8 7.8 3.0 155.7 S30.09- 49.6 50.5 47.7---
2024-06-15 10:10 amESE 3.9 5.8----30.09- 49.6 50.5 47.5---
2024-06-15 10:00 am SE 3.9 5.8----30.09+0.00 49.6 50.5 47.7---
2024-06-15 09:50 am SE 3.9 5.8 3.0 145.4SSW30.09- 49.6 50.5 47.5---

Detailed Wave Summary
for 46082 as of (9:40 am AKDT)
1740 GMT on 06/16/2024:

These wave data are displayed in rounded times.

     

Click on the graph icon in the table below to see a time series plot of the last five days of that observation.

5-day plot - Significant Wave Height Significant Wave Height (WVHT): 2.6 ft
5-day plot - Swell Height Swell Height (SwH): 2.6 ft
5-day plot - Swell Period Swell Period (SwP): 13.8 sec
5-day plot - Swell Direction Swell Direction (SwD):SSE
5-day plot - Wind Wave Height Wind Wave Height (WWH): 0.7 ft
5-day plot - Wind Wave Period Wind Wave Period (WWP): 2.6 sec
5-day plot - Wind Wave Direction Wind Wave Direction (WWD): W
5-day plot - Wave Steepness Wave Steepness (STEEPNESS): SWELL
5-day plot - Average Wave Period Average Wave Period (APD): 6.5 sec
Previous observations
TIME
(AKDT)
5-day plot - Wave Height
WVHT
ft
5-day plot - Swell Height
SwH
ft
5-day plot - Swell Period
SwP
sec
5-day plot - Swell Direction
SwD
 
5-day plot - Wind Wave Height
WWH
ft
5-day plot - Wind Wave Period
WWP
sec
5-day plot - Wind Wave Direction
WWD
 
5-day plot - Wave Steepness
STEEPNESS
 
5-day plot - Average Wave Period
APD
sec
2024-06-16 09:10 am 2.6 2.3 13.8 S 0.7 4.3 SSW N/A 6.6
2024-06-16 08:40 am 2.3 2.3 14.8 S 0.7 4.2 SW N/A 6.5
2024-06-16 08:10 am 2.3 2.3 14.8SSE 0.7 2.7 W N/A 6.3
2024-06-16 07:40 am 2.6 2.6 13.8 S 0.7 2.5 W N/A 6.6
2024-06-16 07:10 am 2.6 2.3 13.8 S 0.7 2.4 W N/A 6.8
2024-06-16 06:40 am 2.6 2.6 14.8SSE 0.7 2.6 W N/A 6.7
2024-06-16 06:10 am 2.3 2.3 14.8 S 0.7 3.8 SW N/A 6.2
2024-06-16 05:40 am 2.3 2.3 13.8 SW 0.7 4.0 SW N/A 6.4
2024-06-16 05:10 am 2.6 2.3 13.8 S 0.7 3.6 SW N/A 6.5
2024-06-16 04:40 am 2.6 2.3 13.8SSE 0.7 2.5 W N/A 6.5
2024-06-16 04:10 am 2.6 2.3 14.8SSE 0.7 3.7 SW N/A 6.8
2024-06-16 03:40 am 2.3 2.3 13.8SSW 0.7 3.8 SW N/A 6.6
2024-06-16 03:10 am 2.3 2.3 13.8 S 0.7 2.2 W N/A 6.2
2024-06-16 02:40 am 2.3 2.3 14.8 SE 0.7 3.8 SW N/A 6.2
2024-06-16 02:10 am 2.6 2.6 14.8SSW 0.7 3.3 SSW SWELL 6.6
2024-06-16 01:40 am 2.3 2.3 13.8SSW 0.7 3.8 SW N/A 6.6
2024-06-16 01:10 am 2.3 2.3 13.8SSW 0.7 3.6 SW N/A 6.5
2024-06-16 12:40 am 2.3 2.3 13.8 S 0.7 3.8 SSW N/A 6.5
2024-06-16 12:10 am 2.6 2.6 14.8SSW 0.7 3.7 SSW SWELL 7.3
2024-06-15 11:40 pm 2.6 2.6 14.8 S 0.7 3.3 SSW SWELL 6.8
2024-06-15 11:10 pm 2.3 2.3 13.8SSW 0.7 3.7 SW N/A 6.6
2024-06-15 10:40 pm 2.3 2.3 13.8SSW 0.7 3.6 SSW N/A 7.2
2024-06-15 10:10 pm 2.6 2.6 13.8SSW 0.7 3.7 SW N/A 7.6
2024-06-15 09:40 pm 2.6 2.6 13.8SSW 0.7 3.7 SW N/A 7.7
2024-06-15 09:10 pm 2.6 2.3 13.8SSW 0.7 4.0 SW N/A 7.6
2024-06-15 08:40 pm 2.3 2.3 13.8SSW 0.7 3.7 SW N/A 7.4
2024-06-15 08:10 pm 3.0 3.0 13.8SSW 0.7 3.7 SW SWELL 8.1
2024-06-15 07:40 pm 2.3 2.3 13.8 S 0.7 4.0 SW N/A 7.1
2024-06-15 07:10 pm 2.6 2.3 14.8SSW 0.7 3.7 SSW N/A 7.0
2024-06-15 06:40 pm 2.3 2.0 13.8SSW 0.7 4.0 SW N/A 7.0
2024-06-15 06:10 pm 2.6 2.6 14.8 S 0.7 3.6 SSW SWELL 7.4
2024-06-15 05:40 pm 2.6 2.6 14.8 S 0.7 4.0 SW SWELL 7.4
2024-06-15 05:10 pm 2.6 2.6 13.8 S 0.7 2.9 SSW N/A 7.1
2024-06-15 04:40 pm 2.6 2.3 14.8 SW 0.7 3.2 SSW N/A 6.8
2024-06-15 04:10 pm 2.6 2.3 14.8SSE 0.7 4.0 SSW N/A 6.9
2024-06-15 03:40 pm 2.3 2.3 13.8SSW 0.7 4.0 SSW N/A 6.5
2024-06-15 03:10 pm 3.0 2.6 14.8SSW 1.0 3.8 SW SWELL 6.8
2024-06-15 02:40 pm 2.6 2.3 14.8 S 0.7 3.7 SW N/A 6.6
2024-06-15 02:10 pm 3.0 2.6 14.8 S 1.0 4.0 SW SWELL 6.6
2024-06-15 01:40 pm 2.6 2.3 14.8 S 0.7 3.8 SW N/A 6.4
2024-06-15 01:10 pm 2.6 2.6 13.8SSE 1.0 3.8 SW SWELL 6.1
2024-06-15 12:40 pm 2.6 2.3 13.8 S 1.0 3.3 SSE N/A 5.8
2024-06-15 12:10 pm 3.0 2.6 13.8SSW 1.0 3.4 SSW SWELL 5.9
2024-06-15 11:40 am 2.6 2.6 16.0SSW 1.0 3.0 SE SWELL 5.4
2024-06-15 11:10 am 3.0 2.6 14.8SSW 1.0 3.4 E SWELL 6.1
2024-06-15 10:40 am 2.6 2.6 14.8 S 1.0 3.6 ESE SWELL 5.5
2024-06-15 10:10 am 3.0 2.6 14.8 S 1.0 3.8 S SWELL 5.7

Plot of wave energy versus frequency (and period)